Time,TemperatureF,DewpointF,PressureIn,WindDirection,WindDirectionDegrees,WindSpeedMPH,WindSpeedGustMPH,Humidity,HourlyPrecipIn,Conditions,Clouds,dailyrainin,SoftwareType,DateUTC
2013-05-20 00:01:00,48.3,44.9,30.23,WSW,254,0.0,0.0,88,0.00,,CLR,0.00,VWS V14.01,2013-05-20 07:01:00,
2013-05-20 00:06:00,47.8,44.4,30.23,WSW,254,0.0,0.0,88,0.00,,CLR,0.00,VWS V14.01,2013-05-20 07:06:00,
2013-05-20 00:11:00,47.8,44.4,30.23,WSW,254,0.0,0.0,88,0.00,,CLR,0.00,VWS V14.01,2013-05-20 07:11:00,
2013-05-20 00:16:00,47.1,43.7,30.23,WSW,254,0.0,0.0,88,0.00,,CLR,0.00,VWS V14.01,2013-05-20 07:16:00,
2013-05-20 00:21:00,47.1,43.7,30.23,WSW,254,0.0,0.0,88,0.00,,CLR,0.00,VWS V14.01,2013-05-20 07:21:00,
2013-05-20 00:26:00,47.1,43.7,30.23,WSW,254,0.0,0.0,88,0.00,,CLR,0.00,VWS V14.01,2013-05-20 07:26:00,
2013-05-20 00:31:00,46.8,43.4,30.23,WSW,254,0.0,0.0,88,0.00,,CLR,0.00,VWS V14.01,2013-05-20 07:31:00,
2013-05-20 00:37:00,46.8,43.4,30.23,WSW,254,0.0,0.0,88,0.00,,CLR,0.00,VWS V14.01,2013-05-20 07:37:00,
2013-05-20 00:42:00,46.5,43.1,30.23,WSW,254,0.0,0.0,88,0.00,,CLR,0.00,VWS V14.01,2013-05-20 07:42:00,
2013-05-20 00:47:00,46.4,43.0,30.23,WSW,254,0.0,0.0,88,0.00,,CLR,0.00,VWS V14.01,2013-05-20 07:47:00,
2013-05-20 00:52:00,46.4,43.0,30.22,WSW,254,0.0,0.0,88,0.00,,CLR,0.00,VWS V14.01,2013-05-20 07:52:00,
2013-05-20 00:57:00,46.4,43.0,30.22,WSW,254,0.0,0.0,88,0.00,,CLR,0.00,VWS V14.01,2013-05-20 07:57:00,
2013-05-20 01:02:00,46.2,42.8,30.22,WSW,254,0.0,0.0,88,0.00,,SCT070,0.00,VWS V14.01,2013-05-20 08:02:00,
2013-05-20 01:07:00,46.2,42.8,30.22,WSW,254,0.0,0.0,88,0.00,,SCT070,0.00,VWS V14.01,2013-05-20 08:07:00,
2013-05-20 01:12:00,46.1,42.8,30.22,WSW,254,0.0,0.0,88,0.00,,SCT070,0.00,VWS V14.01,2013-05-20 08:12:00,
2013-05-20 01:17:00,45.8,42.5,30.22,WSW,254,0.0,0.0,88,0.00,,SCT070,0.00,VWS V14.01,2013-05-20 08:17:00,
2013-05-20 01:22:00,45.6,42.3,30.22,WSW,254,0.0,0.0,88,0.00,,SCT070,0.00,VWS V14.01,2013-05-20 08:22:00,
2013-05-20 01:28:00,45.6,42.3,30.22,WSW,254,0.0,0.0,88,0.00,,SCT070,0.00,VWS V14.01,2013-05-20 08:28:00,
2013-05-20 01:33:00,45.6,42.3,30.22,WSW,254,0.0,0.0,88,0.00,,SCT070,0.00,VWS V14.01,2013-05-20 08:33:00,
2013-05-20 01:38:00,45.5,42.2,30.22,WSW,254,0.0,0.0,88,0.00,,SCT070,0.00,VWS V14.01,2013-05-20 08:38:00,
2013-05-20 01:43:00,45.5,42.2,30.22,WSW,254,0.0,0.0,88,0.00,,SCT070,0.00,VWS V14.01,2013-05-20 08:43:00,
2013-05-20 01:48:00,45.3,43.4,30.22,WSW,254,0.0,0.0,93,0.00,,SCT070,0.00,VWS V14.01,2013-05-20 08:48:00,
2013-05-20 01:53:00,45.3,43.4,30.22,WSW,254,0.0,0.0,93,0.00,,SCT070,0.00,VWS V14.01,2013-05-20 08:53:00,
2013-05-20 01:58:00,45.5,43.6,30.22,WSW,254,0.0,0.0,93,0.00,,SCT070,0.00,VWS V14.01,2013-05-20 08:58:00,
2013-05-20 02:03:00,45.5,43.6,30.22,WSW,254,0.0,0.0,93,0.00,,CLR,0.00,VWS V14.01,2013-05-20 09:03:00,
2013-05-20 02:08:00,45.5,43.6,30.22,WSW,254,0.0,0.0,93,0.00,,CLR,0.00,VWS V14.01,2013-05-20 09:08:00,
2013-05-20 02:13:00,45.2,43.3,30.22,WSW,254,0.0,0.0,93,0.00,,CLR,0.00,VWS V14.01,2013-05-20 09:13:00,
2013-05-20 02:18:00,45.2,43.3,30.22,WSW,254,0.0,0.0,93,0.00,,CLR,0.00,VWS V14.01,2013-05-20 09:18:00,
2013-05-20 02:23:00,45.2,43.3,30.22,WSW,254,0.0,0.0,93,0.00,,CLR,0.00,VWS V14.01,2013-05-20 09:23:00,
2013-05-20 02:28:00,45.2,43.3,30.22,WSW,254,0.0,0.0,93,0.00,,CLR,0.00,VWS V14.01,2013-05-20 09:28:00,
2013-05-20 02:33:00,45.2,43.3,30.22,WSW,254,0.0,0.0,93,0.00,,CLR,0.00,VWS V14.01,2013-05-20 09:33:00,
2013-05-20 02:39:00,45.2,43.3,30.22,WSW,254,0.0,0.0,93,0.00,,CLR,0.00,VWS V14.01,2013-05-20 09:39:00,
2013-05-20 02:44:00,45.2,43.3,30.22,WSW,254,0.0,0.0,93,0.00,,CLR,0.00,VWS V14.01,2013-05-20 09:44:00,
2013-05-20 02:49:00,44.5,42.6,30.21,WSW,254,0.0,0.0,93,0.00,,CLR,0.00,VWS V14.01,2013-05-20 09:49:00,
2013-05-20 02:54:00,44.5,42.6,30.21,WSW,254,0.0,0.0,93,0.00,,CLR,0.00,VWS V14.01,2013-05-20 09:54:00,
2013-05-20 02:59:00,44.5,42.6,30.21,WSW,254,0.0,0.0,93,0.00,,CLR,0.00,VWS V14.01,2013-05-20 09:59:00,
2013-05-20 03:04:00,44.5,42.6,30.22,WSW,254,0.0,0.0,93,0.00,,CLR,0.00,VWS V14.01,2013-05-20 10:04:00,
2013-05-20 03:09:00,44.5,42.9,30.22,North,359,0.0,0.0,94,0.00,,CLR,0.00,VWS V14.01,2013-05-20 10:09:00,
2013-05-20 03:14:00,44.5,42.9,30.22,North,359,0.0,0.0,94,0.00,,CLR,0.00,VWS V14.01,2013-05-20 10:14:00,
2013-05-20 03:19:00,45.3,44.0,30.22,WSW,254,0.0,0.0,95,0.00,,CLR,0.00,VWS V14.01,2013-05-20 10:19:00,
2013-05-20 03:24:00,45.5,44.2,30.22,ESE,119,0.0,0.0,95,0.00,,CLR,0.00,VWS V14.01,2013-05-20 10:24:00,
2013-05-20 03:29:00,45.6,44.2,30.22,ESE,119,2.0,2.0,95,0.00,,CLR,0.00,VWS V14.01,2013-05-20 10:29:00,
2013-05-20 03:34:00,45.6,44.2,30.22,ESE,119,0.0,0.0,95,0.00,,CLR,0.00,VWS V14.01,2013-05-20 10:34:00,
2013-05-20 03:40:00,45.5,44.2,30.22,ESE,119,0.0,0.0,95,0.00,,CLR,0.00,VWS V14.01,2013-05-20 10:40:00,
2013-05-20 03:45:00,45.5,44.2,30.22,ESE,119,0.0,0.0,95,0.00,,CLR,0.00,VWS V14.01,2013-05-20 10:45:00,
2013-05-20 03:50:00,45.1,43.8,30.22,East,93,0.0,0.0,95,0.00,,CLR,0.00,VWS V14.01,2013-05-20 10:50:00,
2013-05-20 03:55:00,44.9,43.6,30.22,East,93,0.0,0.0,95,0.00,,CLR,0.00,VWS V14.01,2013-05-20 10:55:00,
2013-05-20 04:00:00,44.9,43.6,30.22,East,93,0.0,0.0,95,0.00,,CLR,0.00,VWS V14.01,2013-05-20 11:00:00,
2013-05-20 04:05:00,44.9,43.6,30.23,East,93,0.0,0.0,95,0.00,,CLR,0.00,VWS V14.01,2013-05-20 11:05:00,
2013-05-20 04:10:00,44.9,43.6,30.23,East,93,0.0,0.0,95,0.00,,CLR,0.00,VWS V14.01,2013-05-20 11:10:00,
2013-05-20 04:15:00,44.9,43.6,30.23,WSW,258,0.0,0.0,95,0.00,,CLR,0.00,VWS V14.01,2013-05-20 11:15:00,
2013-05-20 04:20:00,44.9,43.6,30.23,East,93,0.0,0.0,95,0.00,,CLR,0.00,VWS V14.01,2013-05-20 11:20:00,
2013-05-20 04:25:00,44.6,43.3,30.23,East,93,0.0,0.0,95,0.00,,CLR,0.00,VWS V14.01,2013-05-20 11:25:00,
2013-05-20 04:30:00,44.6,43.3,30.23,East,93,0.0,0.0,95,0.00,,CLR,0.00,VWS V14.01,2013-05-20 11:30:00,
2013-05-20 04:35:00,44.3,43.0,30.23,East,93,0.0,0.0,95,0.00,,CLR,0.00,VWS V14.01,2013-05-20 11:35:00,
2013-05-20 04:41:00,44.1,42.8,30.23,East,93,0.0,0.0,95,0.00,,CLR,0.00,VWS V14.01,2013-05-20 11:41:00,
2013-05-20 04:46:00,44.1,42.8,30.23,East,93,0.0,0.0,95,0.00,,CLR,0.00,VWS V14.01,2013-05-20 11:46:00,
2013-05-20 04:51:00,43.9,42.6,30.23,East,93,0.0,0.0,95,0.00,,CLR,0.00,VWS V14.01,2013-05-20 11:51:00,
2013-05-20 04:56:00,43.9,42.6,30.23,East,93,0.0,0.0,95,0.00,,CLR,0.00,VWS V14.01,2013-05-20 11:56:00,
2013-05-20 05:01:00,43.9,42.6,30.23,East,93,0.0,0.0,95,0.00,,CLR,0.00,VWS V14.01,2013-05-20 12:01:00,
2013-05-20 05:06:00,43.8,42.5,30.23,East,93,0.0,0.0,95,0.00,,CLR,0.00,VWS V14.01,2013-05-20 12:06:00,
2013-05-20 05:11:00,43.8,42.5,30.23,East,93,0.0,0.0,95,0.00,,CLR,0.00,VWS V14.01,2013-05-20 12:11:00,
2013-05-20 05:16:00,43.9,42.6,30.23,East,93,0.0,0.0,95,0.00,,CLR,0.00,VWS V14.01,2013-05-20 12:16:00,
2013-05-20 05:21:00,44.2,42.9,30.24,East,93,0.0,0.0,95,0.00,,CLR,0.00,VWS V14.01,2013-05-20 12:21:00,
2013-05-20 05:26:00,44.2,43.1,30.24,East,93,0.0,1.0,96,0.00,,CLR,0.00,VWS V14.01,2013-05-20 12:26:00,
2013-05-20 05:31:00,44.2,43.1,30.24,East,93,0.0,0.0,96,0.00,,CLR,0.00,VWS V14.01,2013-05-20 12:31:00,
2013-05-20 05:36:00,44.2,43.1,30.24,East,93,0.0,0.0,96,0.00,,CLR,0.00,VWS V14.01,2013-05-20 12:36:00,
2013-05-20 05:41:00,43.9,42.8,30.24,East,93,0.0,0.0,96,0.00,,CLR,0.00,VWS V14.01,2013-05-20 12:41:00,
2013-05-20 05:46:00,43.9,42.8,30.24,East,93,0.0,0.0,96,0.00,,CLR,0.00,VWS V14.01,2013-05-20 12:46:00,
2013-05-20 05:51:00,44.2,43.1,30.24,East,93,0.0,0.0,96,0.00,,CLR,0.00,VWS V14.01,2013-05-20 12:51:00,
2013-05-20 05:57:00,44.2,43.1,30.24,East,93,0.0,0.0,96,0.00,,CLR,0.00,VWS V14.01,2013-05-20 12:57:00,
2013-05-20 06:02:00,44.2,43.1,30.24,East,93,0.0,0.0,96,0.00,,CLR,0.00,VWS V14.01,2013-05-20 13:02:00,
2013-05-20 06:07:00,44.5,43.4,30.24,East,93,0.0,0.0,96,0.00,,CLR,0.00,VWS V14.01,2013-05-20 13:07:00,
2013-05-20 06:12:00,44.6,43.5,30.24,East,93,0.0,0.0,96,0.00,,CLR,0.00,VWS V14.01,2013-05-20 13:12:00,
2013-05-20 06:17:00,45.1,44.0,30.24,East,93,0.0,0.0,96,0.00,,CLR,0.00,VWS V14.01,2013-05-20 13:17:00,
2013-05-20 06:22:00,45.9,44.8,30.25,East,93,0.0,0.0,96,0.00,,CLR,0.00,VWS V14.01,2013-05-20 13:22:00,
2013-05-20 06:27:00,45.9,44.8,30.25,East,93,0.0,0.0,96,0.00,,CLR,0.00,VWS V14.01,2013-05-20 13:27:00,
2013-05-20 06:32:00,45.9,44.8,30.25,East,93,0.0,0.0,96,0.00,,CLR,0.00,VWS V14.01,2013-05-20 13:32:00,
2013-05-20 06:37:00,45.9,44.8,30.25,East,93,0.0,0.0,96,0.00,,CLR,0.00,VWS V14.01,2013-05-20 13:37:00,
2013-05-20 06:42:00,47.2,46.1,30.25,East,93,0.0,0.0,96,0.00,,CLR,0.00,VWS V14.01,2013-05-20 13:42:00,
2013-05-20 06:47:00,48.0,46.9,30.25,ENE,75,1.0,1.0,96,0.00,,CLR,0.00,VWS V14.01,2013-05-20 13:47:00,
2013-05-20 06:52:00,48.4,47.3,30.25,ENE,75,0.0,0.0,96,0.00,,CLR,0.00,VWS V14.01,2013-05-20 13:52:00,
2013-05-20 06:57:00,48.4,47.3,30.25,ENE,75,0.0,0.0,96,0.00,,CLR,0.00,VWS V14.01,2013-05-20 13:57:00,
2013-05-20 07:02:00,48.4,46.5,30.25,ENE,75,0.0,0.0,93,0.00,,CLR,0.00,VWS V14.01,2013-05-20 14:02:00,
2013-05-20 07:07:00,49.9,48.0,30.25,ENE,75,0.0,0.0,93,0.00,,CLR,0.00,VWS V14.01,2013-05-20 14:07:00,
2013-05-20 07:12:00,49.9,48.0,30.25,ESE,110,0.0,0.0,93,0.00,,CLR,0.00,VWS V14.01,2013-05-20 14:12:00,
2013-05-20 07:18:00,50.6,48.7,30.25,ENE,61,0.0,0.0,93,0.00,,CLR,0.00,VWS V14.01,2013-05-20 14:18:00,
2013-05-20 07:23:00,50.6,48.7,30.25,ENE,66,0.0,0.0,93,0.00,,CLR,0.00,VWS V14.01,2013-05-20 14:23:00,
2013-05-20 07:28:00,51.5,49.5,30.25,ENE,66,0.0,0.0,93,0.00,,CLR,0.00,VWS V14.01,2013-05-20 14:28:00,
2013-05-20 07:33:00,51.8,49.8,30.25,ENE,66,0.0,0.0,93,0.00,,CLR,0.00,VWS V14.01,2013-05-20 14:33:00,
2013-05-20 07:38:00,52.1,50.1,30.25,ENE,66,0.0,0.0,93,0.00,,CLR,0.00,VWS V14.01,2013-05-20 14:38:00,
2013-05-20 07:43:00,53.2,51.2,30.25,East,92,0.0,1.0,93,0.00,,CLR,0.00,VWS V14.01,2013-05-20 14:43:00,
2013-05-20 07:48:00,53.6,49.2,30.24,East,92,0.0,0.0,85,0.00,,CLR,0.00,VWS V14.01,2013-05-20 14:48:00,
2013-05-20 07:53:00,54.3,50.2,30.24,East,92,0.0,0.0,86,0.00,,CLR,0.00,VWS V14.01,2013-05-20 14:53:00,
2013-05-20 07:58:00,54.8,50.1,30.24,East,96,1.0,1.0,84,0.00,,CLR,0.00,VWS V14.01,2013-05-20 14:58:00,
2013-05-20 08:03:00,55.1,50.0,30.24,East,86,0.0,0.0,83,0.00,,CLR,0.00,VWS V14.01,2013-05-20 15:03:00,
2013-05-20 08:08:00,55.5,50.4,30.24,East,86,0.0,0.0,83,0.00,,CLR,0.00,VWS V14.01,2013-05-20 15:08:00,
2013-05-20 08:13:00,56.3,50.9,30.24,East,86,0.0,0.0,82,0.00,,CLR,0.00,VWS V14.01,2013-05-20 15:13:00,
2013-05-20 08:18:00,56.9,50.5,30.24,East,90,0.0,0.0,79,0.00,,CLR,0.00,VWS V14.01,2013-05-20 15:18:00,
2013-05-20 08:23:00,57.5,51.0,30.24,East,90,0.0,0.0,79,0.00,,CLR,0.00,VWS V14.01,2013-05-20 15:23:00,
2013-05-20 08:28:00,57.7,51.2,30.24,East,90,2.0,2.0,79,0.00,,CLR,0.00,VWS V14.01,2013-05-20 15:28:00,
2013-05-20 08:34:00,57.9,51.4,30.24,East,90,0.0,0.0,79,0.00,,CLR,0.00,VWS V14.01,2013-05-20 15:34:00,
2013-05-20 08:39:00,58.5,52.0,30.24,East,90,0.0,0.0,79,0.00,,CLR,0.00,VWS V14.01,2013-05-20 15:39:00,
2013-05-20 08:44:00,59.1,52.3,30.24,East,90,0.0,0.0,78,0.00,,CLR,0.00,VWS V14.01,2013-05-20 15:44:00,
2013-05-20 08:49:00,59.6,52.7,30.23,East,90,0.0,1.0,78,0.00,,CLR,0.00,VWS V14.01,2013-05-20 15:49:00,
2013-05-20 08:54:00,59.6,52.7,30.23,East,90,0.0,0.0,78,0.00,,CLR,0.00,VWS V14.01,2013-05-20 15:54:00,
2013-05-20 08:59:00,60.5,53.6,30.23,East,90,0.0,0.0,78,0.00,,CLR,0.00,VWS V14.01,2013-05-20 15:59:00,
2013-05-20 09:04:00,60.5,53.6,30.23,East,90,0.0,0.0,78,0.00,,CLR,0.00,VWS V14.01,2013-05-20 16:04:00,
2013-05-20 09:09:00,61.2,54.3,30.23,East,90,0.0,0.0,78,0.00,,CLR,0.00,VWS V14.01,2013-05-20 16:09:00,
2013-05-20 09:14:00,62.2,55.3,30.23,East,90,0.0,0.0,78,0.00,,CLR,0.00,VWS V14.01,2013-05-20 16:14:00,
2013-05-20 09:19:00,62.6,55.7,30.23,East,90,0.0,0.0,78,0.00,,CLR,0.00,VWS V14.01,2013-05-20 16:19:00,
2013-05-20 09:25:00,62.6,55.7,30.23,East,90,0.0,0.0,78,0.00,,CLR,0.00,VWS V14.01,2013-05-20 16:25:00,
2013-05-20 09:30:00,62.6,55.7,30.23,East,90,0.0,0.0,78,0.00,,CLR,0.00,VWS V14.01,2013-05-20 16:30:00,
2013-05-20 09:35:00,62.6,55.7,30.22,East,90,1.0,1.0,78,0.00,,CLR,0.00,VWS V14.01,2013-05-20 16:35:00,
2013-05-20 09:40:00,62.6,55.7,30.22,East,90,0.0,0.0,78,0.00,,CLR,0.00,VWS V14.01,2013-05-20 16:40:00,
2013-05-20 09:45:00,63.9,56.9,30.22,East,90,0.0,0.0,78,0.00,,CLR,0.00,VWS V14.01,2013-05-20 16:45:00,
2013-05-20 09:50:00,63.9,56.9,30.22,East,90,0.0,0.0,78,0.00,,CLR,0.00,VWS V14.01,2013-05-20 16:50:00,
2013-05-20 09:56:00,64.5,57.5,30.22,East,90,0.0,0.0,78,0.00,,CLR,0.00,VWS V14.01,2013-05-20 16:56:00,
2013-05-20 10:01:00,64.4,57.4,30.22,East,90,0.0,0.0,78,0.00,,CLR,0.00,VWS V14.01,2013-05-20 17:01:00,
2013-05-20 10:06:00,64.4,57.4,30.21,East,90,0.0,0.0,78,0.00,,CLR,0.00,VWS V14.01,2013-05-20 17:06:00,
2013-05-20 10:11:00,65.2,58.2,30.21,East,90,0.0,0.0,78,0.00,,CLR,0.00,VWS V14.01,2013-05-20 17:11:00,
2013-05-20 10:16:00,65.2,58.2,30.21,East,90,0.0,0.0,78,0.00,,CLR,0.00,VWS V14.01,2013-05-20 17:16:00,
2013-05-20 10:21:00,65.2,58.2,30.20,East,90,2.0,2.0,78,0.00,,CLR,0.00,VWS V14.01,2013-05-20 17:21:00,
2013-05-20 10:26:00,66.3,59.2,30.20,East,90,0.0,0.0,78,0.00,,CLR,0.00,VWS V14.01,2013-05-20 17:26:00,
2013-05-20 10:31:00,66.2,59.2,30.20,East,90,0.0,0.0,78,0.00,,CLR,0.00,VWS V14.01,2013-05-20 17:31:00,
2013-05-20 10:36:00,66.5,59.4,30.20,East,90,0.0,0.0,78,0.00,,CLR,0.00,VWS V14.01,2013-05-20 17:36:00,
2013-05-20 10:41:00,66.5,59.4,30.20,East,90,0.0,0.0,78,0.00,,CLR,0.00,VWS V14.01,2013-05-20 17:41:00,
2013-05-20 10:46:00,66.5,59.4,30.20,East,90,0.0,0.0,78,0.00,,CLR,0.00,VWS V14.01,2013-05-20 17:46:00,
2013-05-20 10:52:00,66.5,59.4,30.20,East,90,0.0,0.0,78,0.00,,CLR,0.00,VWS V14.01,2013-05-20 17:52:00,
2013-05-20 10:57:00,67.9,60.8,30.20,WNW,301,0.0,0.0,78,0.00,,CLR,0.00,VWS V14.01,2013-05-20 17:57:00,
2013-05-20 11:02:00,67.9,60.8,30.20,NE,38,0.0,0.0,78,0.00,,CLR,0.00,VWS V14.01,2013-05-20 18:02:00,
2013-05-20 11:07:00,67.9,50.7,30.19,NE,38,0.0,0.0,54,0.00,,CLR,0.00,VWS V14.01,2013-05-20 18:07:00,
2013-05-20 11:12:00,69.3,52.0,30.19,NE,37,0.0,0.0,54,0.00,,CLR,0.00,VWS V14.01,2013-05-20 18:12:00,
2013-05-20 11:17:00,69.3,52.0,30.19,NE,37,0.0,0.0,54,0.00,,CLR,0.00,VWS V14.01,2013-05-20 18:17:00,
2013-05-20 11:22:00,69.3,52.0,30.19,North,1,0.0,0.0,54,0.00,,CLR,0.00,VWS V14.01,2013-05-20 18:22:00,
2013-05-20 11:28:00,69.3,52.0,30.19,North,1,0.0,0.0,54,0.00,,CLR,0.00,VWS V14.01,2013-05-20 18:28:00,
2013-05-20 11:33:00,69.6,52.2,30.18,NE,35,0.0,0.0,54,0.00,,CLR,0.00,VWS V14.01,2013-05-20 18:33:00,
2013-05-20 11:38:00,69.6,52.2,30.18,NE,35,0.0,0.0,54,0.00,,CLR,0.00,VWS V14.01,2013-05-20 18:38:00,
2013-05-20 11:43:00,69.6,52.2,30.18,ENE,68,0.0,0.0,54,0.00,,CLR,0.00,VWS V14.01,2013-05-20 18:43:00,
2013-05-20 11:48:00,69.6,52.2,30.17,ENE,68,0.0,0.0,54,0.00,,CLR,0.00,VWS V14.01,2013-05-20 18:48:00,
2013-05-20 11:53:00,69.6,52.2,30.17,ENE,68,0.0,0.0,54,0.00,,CLR,0.00,VWS V14.01,2013-05-20 18:53:00,
2013-05-20 11:58:00,70.1,51.7,30.17,ENE,68,0.0,0.0,52,0.00,,CLR,0.00,VWS V14.01,2013-05-20 18:58:00,
2013-05-20 12:03:00,70.1,51.7,30.17,ENE,68,0.0,0.0,52,0.00,,SCT045,0.00,VWS V14.01,2013-05-20 19:03:00,
2013-05-20 12:08:00,70.1,51.7,30.17,ENE,68,0.0,0.0,52,0.00,,SCT045,0.00,VWS V14.01,2013-05-20 19:08:00,
2013-05-20 12:13:00,70.4,52.0,30.17,ENE,68,0.0,0.0,52,0.00,,SCT045,0.00,VWS V14.01,2013-05-20 19:13:00,
2013-05-20 12:18:00,70.4,52.0,30.16,ENE,68,0.0,0.0,52,0.00,,SCT045,0.00,VWS V14.01,2013-05-20 19:18:00,
2013-05-20 12:23:00,70.4,52.0,30.16,East,90,0.0,0.0,52,0.00,,SCT045,0.00,VWS V14.01,2013-05-20 19:23:00,
2013-05-20 12:28:00,70.4,52.0,30.16,NE,37,0.0,0.0,52,0.00,,SCT045,0.00,VWS V14.01,2013-05-20 19:28:00,
2013-05-20 12:33:00,70.4,52.0,30.16,NE,37,0.0,0.0,52,0.00,,SCT045,0.00,VWS V14.01,2013-05-20 19:33:00,
2013-05-20 12:39:00,70.4,52.0,30.16,NE,37,0.0,0.0,52,0.00,,SCT045,0.00,VWS V14.01,2013-05-20 19:39:00,
2013-05-20 12:44:00,70.4,52.0,30.16,SE,127,0.0,0.0,52,0.00,,SCT045,0.00,VWS V14.01,2013-05-20 19:44:00,
2013-05-20 12:49:00,71.6,53.1,30.15,SE,127,1.0,1.0,52,0.00,,SCT045,0.00,VWS V14.01,2013-05-20 19:49:00,
2013-05-20 12:54:00,71.6,53.1,30.15,SE,130,0.0,0.0,52,0.00,,SCT045,0.00,VWS V14.01,2013-05-20 19:54:00,
2013-05-20 12:59:00,71.4,52.9,30.15,SE,130,0.0,0.0,52,0.00,,SCT045,0.00,VWS V14.01,2013-05-20 19:59:00,
2013-05-20 13:04:00,71.8,53.2,30.14,SE,130,1.0,1.0,52,0.00,,SCT045,0.00,VWS V14.01,2013-05-20 20:04:00,
2013-05-20 13:09:00,71.6,53.1,30.14,SE,136,0.0,0.0,52,0.00,,SCT045,0.00,VWS V14.01,2013-05-20 20:09:00,
2013-05-20 13:14:00,71.6,53.1,30.14,SE,137,0.0,0.0,52,0.00,,SCT045,0.00,VWS V14.01,2013-05-20 20:14:00,
2013-05-20 13:19:00,71.6,50.9,30.14,SE,137,0.0,0.0,48,0.00,,SCT045,0.00,VWS V14.01,2013-05-20 20:19:00,
2013-05-20 13:24:00,71.6,50.9,30.14,WNW,289,0.0,0.0,48,0.00,,SCT045,0.00,VWS V14.01,2013-05-20 20:24:00,
2013-05-20 13:29:00,71.6,50.9,30.14,WNW,289,0.0,0.0,48,0.00,,SCT045,0.00,VWS V14.01,2013-05-20 20:29:00,
2013-05-20 13:34:00,72.1,51.3,30.13,WNW,289,0.0,0.0,48,0.00,,SCT045,0.00,VWS V14.01,2013-05-20 20:34:00,
2013-05-20 13:39:00,71.9,51.2,30.13,WNW,289,0.0,0.0,48,0.00,,SCT045,0.00,VWS V14.01,2013-05-20 20:39:00,
2013-05-20 13:44:00,71.8,51.1,30.13,WNW,289,0.0,0.0,48,0.00,,SCT045,0.00,VWS V14.01,2013-05-20 20:44:00,
2013-05-20 13:49:00,71.8,51.1,30.12,SE,126,0.0,0.0,48,0.00,,SCT045,0.00,VWS V14.01,2013-05-20 20:49:00,
2013-05-20 13:55:00,71.8,50.5,30.12,ENE,68,0.0,0.0,47,0.00,,SCT045,0.00,VWS V14.01,2013-05-20 20:55:00,
2013-05-20 14:00:00,71.8,50.5,30.12,NW,316,0.0,0.0,47,0.00,,SCT045,0.00,VWS V14.01,2013-05-20 21:00:00,
2013-05-20 14:05:00,71.8,50.5,30.11,NW,316,1.0,1.0,47,0.00,,BKN080,0.00,VWS V14.01,2013-05-20 21:05:00,
2013-05-20 14:10:00,71.8,50.5,30.11,ENE,76,0.0,0.0,47,0.00,,BKN080,0.00,VWS V14.01,2013-05-20 21:10:00,
2013-05-20 14:15:00,71.8,50.5,30.11,ENE,76,0.0,0.0,47,0.00,,BKN080,0.00,VWS V14.01,2013-05-20 21:15:00,
2013-05-20 14:20:00,71.8,50.5,30.11,WNW,285,0.0,0.0,47,0.00,,BKN080,0.00,VWS V14.01,2013-05-20 21:20:00,
2013-05-20 14:25:00,74.9,53.3,30.11,WNW,285,0.0,0.0,47,0.00,,BKN080,0.00,VWS V14.01,2013-05-20 21:25:00,
2013-05-20 14:30:00,73.7,52.2,30.11,WNW,285,0.0,0.0,47,0.00,,BKN080,0.00,VWS V14.01,2013-05-20 21:30:00,
2013-05-20 14:36:00,73.7,52.2,30.10,NW,311,1.0,1.0,47,0.00,,BKN080,0.00,VWS V14.01,2013-05-20 21:36:00,
2013-05-20 14:41:00,73.7,52.2,30.10,West,270,0.0,1.0,47,0.00,,BKN080,0.00,VWS V14.01,2013-05-20 21:41:00,
2013-05-20 14:46:00,73.7,45.8,30.10,West,268,0.0,0.0,37,0.00,,BKN080,0.00,VWS V14.01,2013-05-20 21:46:00,
2013-05-20 14:51:00,74.2,46.3,30.10,West,268,0.0,0.0,37,0.00,,BKN080,0.00,VWS V14.01,2013-05-20 21:51:00,
2013-05-20 14:56:00,74.2,46.3,30.10,West,268,0.0,0.0,37,0.00,,BKN080,0.00,VWS V14.01,2013-05-20 21:56:00,
2013-05-20 15:01:00,74.2,46.3,30.10,West,268,0.0,0.0,37,0.00,,CLR,0.00,VWS V14.01,2013-05-20 22:01:00,
2013-05-20 15:06:00,75.6,47.5,30.09,West,268,0.0,0.0,37,0.00,,CLR,0.00,VWS V14.01,2013-05-20 22:06:00,
2013-05-20 15:11:00,75.6,47.5,30.09,West,268,0.0,0.0,37,0.00,,CLR,0.00,VWS V14.01,2013-05-20 22:11:00,
2013-05-20 15:16:00,75.6,46.8,30.09,West,270,0.0,0.0,36,0.00,,CLR,0.00,VWS V14.01,2013-05-20 22:16:00,
2013-05-20 15:21:00,75.4,46.6,30.08,West,270,0.0,0.0,36,0.00,,CLR,0.00,VWS V14.01,2013-05-20 22:21:00,
2013-05-20 15:26:00,75.9,47.1,30.08,SE,128,1.0,1.0,36,0.00,,CLR,0.00,VWS V14.01,2013-05-20 22:26:00,
2013-05-20 15:31:00,75.4,46.6,30.08,West,272,0.0,0.0,36,0.00,,CLR,0.00,VWS V14.01,2013-05-20 22:31:00,
2013-05-20 15:36:00,75.0,48.4,30.07,West,272,0.0,0.0,39,0.00,,CLR,0.00,VWS V14.01,2013-05-20 22:36:00,
2013-05-20 15:42:00,75.0,48.4,30.07,West,270,0.0,0.0,39,0.00,,CLR,0.00,VWS V14.01,2013-05-20 22:42:00,
2013-05-20 15:47:00,74.9,48.3,30.07,West,272,0.0,1.0,39,0.00,,CLR,0.00,VWS V14.01,2013-05-20 22:47:00,
2013-05-20 15:52:00,75.0,48.4,30.07,West,272,0.0,0.0,39,0.00,,CLR,0.00,VWS V14.01,2013-05-20 22:52:00,
2013-05-20 15:57:00,75.0,48.4,30.07,West,272,0.0,0.0,39,0.00,,CLR,0.00,VWS V14.01,2013-05-20 22:57:00,
2013-05-20 16:02:00,75.0,48.4,30.06,West,272,0.0,0.0,39,0.00,,SCT075,0.00,VWS V14.01,2013-05-20 23:02:00,
2013-05-20 16:07:00,76.1,49.4,30.06,ESE,104,1.0,1.0,39,0.00,,SCT075,0.00,VWS V14.01,2013-05-20 23:07:00,
2013-05-20 16:12:00,76.1,49.4,30.06,ESE,104,1.0,1.0,39,0.00,,SCT075,0.00,VWS V14.01,2013-05-20 23:12:00,
2013-05-20 16:17:00,76.1,49.4,30.05,East,92,0.0,1.0,39,0.00,,SCT075,0.00,VWS V14.01,2013-05-20 23:17:00,
2013-05-20 16:22:00,75.2,48.6,30.05,East,92,0.0,0.0,39,0.00,,SCT075,0.00,VWS V14.01,2013-05-20 23:22:00,
2013-05-20 16:28:00,75.2,48.6,30.05,East,92,0.0,0.0,39,0.00,,SCT075,0.00,VWS V14.01,2013-05-20 23:28:00,
2013-05-20 16:33:00,75.4,48.8,30.04,East,92,0.0,0.0,39,0.00,,SCT075,0.00,VWS V14.01,2013-05-20 23:33:00,
2013-05-20 16:38:00,75.9,49.2,30.04,East,92,0.0,0.0,39,0.00,,SCT075,0.00,VWS V14.01,2013-05-20 23:38:00,
2013-05-20 16:43:00,76.1,49.4,30.04,East,92,0.0,0.0,39,0.00,,SCT075,0.00,VWS V14.01,2013-05-20 23:43:00,
2013-05-20 16:48:00,75.9,49.2,30.03,East,92,0.0,0.0,39,0.00,,SCT075,0.00,VWS V14.01,2013-05-20 23:48:00,
2013-05-20 16:53:00,76.3,49.5,30.03,East,92,0.0,0.0,39,0.00,,SCT075,0.00,VWS V14.01,2013-05-20 23:53:00,
2013-05-20 16:58:00,76.3,49.5,30.03,East,92,0.0,0.0,39,0.00,,SCT075,0.00,VWS V14.01,2013-05-20 23:58:00,
2013-05-20 17:03:00,76.3,49.5,30.02,East,92,0.0,0.0,39,0.00,,FEW070,0.00,VWS V14.01,2013-05-21 00:03:00,
2013-05-20 17:08:00,75.7,49.0,30.02,East,92,0.0,1.0,39,0.00,,FEW070,0.00,VWS V14.01,2013-05-21 00:08:00,
2013-05-20 17:13:00,76.3,49.5,30.02,East,92,0.0,0.0,39,0.00,,FEW070,0.00,VWS V14.01,2013-05-21 00:13:00,
2013-05-20 17:18:00,77.1,50.3,30.01,East,92,0.0,0.0,39,0.00,,FEW070,0.00,VWS V14.01,2013-05-21 00:18:00,
2013-05-20 17:23:00,77.3,50.4,30.01,East,92,0.0,0.0,39,0.00,,FEW070,0.00,VWS V14.01,2013-05-21 00:23:00,
2013-05-20 17:28:00,77.3,50.4,30.01,East,92,0.0,0.0,39,0.00,,FEW070,0.00,VWS V14.01,2013-05-21 00:28:00,
2013-05-20 17:33:00,77.0,50.2,30.01,East,92,0.0,0.0,39,0.00,,FEW070,0.00,VWS V14.01,2013-05-21 00:33:00,
2013-05-20 17:38:00,77.0,50.2,30.01,East,92,0.0,0.0,39,0.00,,FEW070,0.00,VWS V14.01,2013-05-21 00:38:00,
2013-05-20 17:43:00,77.8,42.1,30.01,East,92,0.0,0.0,28,0.00,,FEW070,0.00,VWS V14.01,2013-05-21 00:43:00,
2013-05-20 17:48:00,78.4,42.6,30.00,East,92,0.0,0.0,28,0.00,,FEW070,0.00,VWS V14.01,2013-05-21 00:48:00,
2013-05-20 17:53:00,78.4,42.6,30.00,East,92,0.0,0.0,28,0.00,,FEW070,0.00,VWS V14.01,2013-05-21 00:53:00,
2013-05-20 17:58:00,77.5,41.9,30.00,East,92,0.0,0.0,28,0.00,,FEW070,0.00,VWS V14.01,2013-05-21 00:58:00,
2013-05-20 18:04:00,76.4,40.9,30.00,East,92,0.0,0.0,28,0.00,,CLR,0.00,VWS V14.01,2013-05-21 01:04:00,
2013-05-20 18:09:00,76.4,40.9,30.00,East,92,0.0,0.0,28,0.00,,CLR,0.00,VWS V14.01,2013-05-21 01:09:00,
2013-05-20 18:14:00,76.4,40.9,30.00,East,92,0.0,0.0,28,0.00,,CLR,0.00,VWS V14.01,2013-05-21 01:14:00,
2013-05-20 18:19:00,76.4,40.9,29.99,East,92,0.0,0.0,28,0.00,,CLR,0.00,VWS V14.01,2013-05-21 01:19:00,
2013-05-20 18:24:00,76.4,40.9,29.99,East,92,0.0,0.0,28,0.00,,CLR,0.00,VWS V14.01,2013-05-21 01:24:00,
2013-05-20 18:29:00,76.4,40.9,29.99,East,92,0.0,0.0,28,0.00,,CLR,0.00,VWS V14.01,2013-05-21 01:29:00,
2013-05-20 18:34:00,76.4,40.9,29.98,East,92,0.0,0.0,28,0.00,,CLR,0.00,VWS V14.01,2013-05-21 01:34:00,
2013-05-20 18:39:00,76.4,40.9,29.98,East,92,0.0,0.0,28,0.00,,CLR,0.00,VWS V14.01,2013-05-21 01:39:00,
2013-05-20 18:44:00,71.8,37.0,29.98,East,92,0.0,0.0,28,0.00,,CLR,0.00,VWS V14.01,2013-05-21 01:44:00,
2013-05-20 18:49:00,71.8,37.0,29.98,East,92,0.0,0.0,28,0.00,,CLR,0.00,VWS V14.01,2013-05-21 01:49:00,
2013-05-20 18:54:00,70.9,36.2,29.98,East,92,0.0,0.0,28,0.00,,CLR,0.00,VWS V14.01,2013-05-21 01:54:00,
2013-05-20 18:59:00,70.6,48.8,29.98,East,92,0.0,0.0,46,0.00,,CLR,0.00,VWS V14.01,2013-05-21 01:59:00,
2013-05-20 19:04:00,70.3,48.6,29.97,East,92,0.0,0.0,46,0.00,,CLR,0.00,VWS V14.01,2013-05-21 02:04:00,
2013-05-20 19:10:00,69.6,49.1,29.97,East,92,0.0,0.0,48,0.00,,CLR,0.00,VWS V14.01,2013-05-21 02:10:00,
2013-05-20 19:15:00,69.6,49.1,29.97,East,92,0.0,0.0,48,0.00,,CLR,0.00,VWS V14.01,2013-05-21 02:15:00,
2013-05-20 19:20:00,68.8,48.3,29.97,East,92,0.0,0.0,48,0.00,,CLR,0.00,VWS V14.01,2013-05-21 02:20:00,
2013-05-20 19:25:00,68.6,50.3,29.97,East,92,0.0,0.0,52,0.00,,CLR,0.00,VWS V14.01,2013-05-21 02:25:00,
2013-05-20 19:30:00,68.4,52.1,29.97,East,92,0.0,0.0,56,0.00,,CLR,0.00,VWS V14.01,2013-05-21 02:30:00,
2013-05-20 19:35:00,68.1,51.8,29.96,East,92,0.0,0.0,56,0.00,,CLR,0.00,VWS V14.01,2013-05-21 02:35:00,
2013-05-20 19:40:00,67.9,51.6,29.96,East,92,0.0,0.0,56,0.00,,CLR,0.00,VWS V14.01,2013-05-21 02:40:00,
2013-05-20 19:45:00,67.4,51.2,29.96,East,92,0.0,0.0,56,0.00,,CLR,0.00,VWS V14.01,2013-05-21 02:45:00,
2013-05-20 19:50:00,67.4,51.2,29.96,East,92,0.0,0.0,56,0.00,,CLR,0.00,VWS V14.01,2013-05-21 02:50:00,
2013-05-20 19:55:00,67.1,50.9,29.96,East,92,0.0,0.0,56,0.00,,CLR,0.00,VWS V14.01,2013-05-21 02:55:00,
2013-05-20 20:00:00,66.5,50.3,29.96,East,92,0.0,0.0,56,0.00,,CLR,0.00,VWS V14.01,2013-05-21 03:00:00,
2013-05-20 20:05:00,66.3,50.2,29.96,East,92,0.0,0.0,56,0.00,,FEW060,0.00,VWS V14.01,2013-05-21 03:05:00,
2013-05-20 20:10:00,65.8,51.5,29.96,East,92,0.0,0.0,60,0.00,,FEW060,0.00,VWS V14.01,2013-05-21 03:10:00,
2013-05-20 20:16:00,65.8,53.3,29.96,East,92,0.0,0.0,64,0.00,,FEW060,0.00,VWS V14.01,2013-05-21 03:16:00,
2013-05-20 20:21:00,64.7,52.3,29.95,East,92,0.0,0.0,64,0.00,,FEW060,0.00,VWS V14.01,2013-05-21 03:21:00,
2013-05-20 20:26:00,64.7,52.3,29.95,East,92,0.0,0.0,64,0.00,,FEW060,0.00,VWS V14.01,2013-05-21 03:26:00,
2013-05-20 20:31:00,64.7,53.5,29.95,East,92,0.0,0.0,67,0.00,,FEW060,0.00,VWS V14.01,2013-05-21 03:31:00,
2013-05-20 20:36:00,64.7,53.5,29.94,East,92,0.0,0.0,67,0.00,,FEW060,0.00,VWS V14.01,2013-05-21 03:36:00,
2013-05-20 20:41:00,61.9,50.8,29.94,East,92,0.0,0.0,67,0.00,,FEW060,0.00,VWS V14.01,2013-05-21 03:41:00,
2013-05-20 20:46:00,61.9,50.8,29.94,East,92,0.0,0.0,67,0.00,,FEW060,0.00,VWS V14.01,2013-05-21 03:46:00,
2013-05-20 20:51:00,60.6,49.6,29.94,East,92,0.0,0.0,67,0.00,,FEW060,0.00,VWS V14.01,2013-05-21 03:51:00,
2013-05-20 20:56:00,60.5,50.7,29.94,East,92,0.0,0.0,70,0.00,,FEW060,0.00,VWS V14.01,2013-05-21 03:56:00,
2013-05-20 21:01:00,60.2,50.8,29.94,East,92,0.0,0.0,71,0.00,,CLR,0.00,VWS V14.01,2013-05-21 04:01:00,
2013-05-20 21:02:00,60.2,50.8,29.94,East,92,0.0,0.0,71,0.00,,CLR,0.00,VWS V14.01,2013-05-21 04:02:00,
2013-05-20 21:07:00,59.6,50.2,29.94,East,92,0.0,0.0,71,0.00,,CLR,0.00,VWS V14.01,2013-05-21 04:07:00,
2013-05-20 21:12:00,59.6,50.2,29.94,East,92,0.0,0.0,71,0.00,,CLR,0.00,VWS V14.01,2013-05-21 04:12:00,
2013-05-20 21:17:00,58.6,49.2,29.94,East,92,0.0,0.0,71,0.00,,CLR,0.00,VWS V14.01,2013-05-21 04:17:00,
2013-05-20 21:22:00,58.6,49.2,29.94,East,92,0.0,0.0,71,0.00,,CLR,0.00,VWS V14.01,2013-05-21 04:22:00,
2013-05-20 21:27:00,58.6,49.2,29.94,East,92,0.0,0.0,71,0.00,,CLR,0.00,VWS V14.01,2013-05-21 04:27:00,
2013-05-20 21:32:00,57.6,48.3,29.94,East,92,0.0,0.0,71,0.00,,CLR,0.00,VWS V14.01,2013-05-21 04:32:00,
2013-05-20 21:37:00,57.3,48.0,29.94,East,92,0.0,0.0,71,0.00,,CLR,0.00,VWS V14.01,2013-05-21 04:37:00,
2013-05-20 21:43:00,57.0,47.7,29.94,East,92,0.0,0.0,71,0.00,,CLR,0.00,VWS V14.01,2013-05-21 04:43:00,
2013-05-20 21:48:00,57.0,47.7,29.93,East,92,0.0,0.0,71,0.00,,CLR,0.00,VWS V14.01,2013-05-21 04:48:00,
2013-05-20 21:53:00,56.3,47.0,29.93,East,92,0.0,0.0,71,0.00,,CLR,0.00,VWS V14.01,2013-05-21 04:53:00,
2013-05-20 21:58:00,56.0,46.7,29.93,East,92,0.0,0.0,71,0.00,,CLR,0.00,VWS V14.01,2013-05-21 04:58:00,
2013-05-20 22:03:00,55.8,46.5,29.92,East,92,0.0,0.0,71,0.00,,CLR,0.00,VWS V14.01,2013-05-21 05:03:00,
2013-05-20 22:08:00,55.5,46.3,29.92,East,92,0.0,0.0,71,0.00,,CLR,0.00,VWS V14.01,2013-05-21 05:08:00,
2013-05-20 22:13:00,55.5,46.3,29.92,East,92,0.0,0.0,71,0.00,,CLR,0.00,VWS V14.01,2013-05-21 05:13:00,
2013-05-20 22:18:00,55.1,45.9,29.92,East,92,0.0,0.0,71,0.00,,CLR,0.00,VWS V14.01,2013-05-21 05:18:00,
2013-05-20 22:23:00,54.5,45.3,29.92,East,92,0.0,0.0,71,0.00,,CLR,0.00,VWS V14.01,2013-05-21 05:23:00,
2013-05-20 22:28:00,54.2,49.2,29.92,East,92,0.0,0.0,83,0.00,,CLR,0.00,VWS V14.01,2013-05-21 05:28:00,
2013-05-20 22:33:00,53.9,49.2,29.92,East,92,0.0,0.0,84,0.00,,CLR,0.00,VWS V14.01,2013-05-21 05:33:00,
2013-05-20 22:38:00,53.8,49.1,29.92,East,92,0.0,0.0,84,0.00,,CLR,0.00,VWS V14.01,2013-05-21 05:38:00,
2013-05-20 22:43:00,53.5,48.5,29.92,East,92,0.0,0.0,83,0.00,,CLR,0.00,VWS V14.01,2013-05-21 05:43:00,
2013-05-20 22:48:00,53.2,48.5,29.91,East,92,0.0,0.0,84,0.00,,CLR,0.00,VWS V14.01,2013-05-21 05:48:00,
2013-05-20 22:53:00,53.0,48.3,29.91,East,92,0.0,0.0,84,0.00,,CLR,0.00,VWS V14.01,2013-05-21 05:53:00,
2013-05-20 22:58:00,53.0,48.3,29.91,East,92,0.0,0.0,84,0.00,,CLR,0.00,VWS V14.01,2013-05-21 05:58:00,
2013-05-20 23:04:00,52.6,47.9,29.91,East,92,0.0,0.0,84,0.00,,CLR,0.00,VWS V14.01,2013-05-21 06:04:00,
2013-05-20 23:09:00,52.4,47.7,29.91,East,92,0.0,0.0,84,0.00,,CLR,0.00,VWS V14.01,2013-05-21 06:09:00,
2013-05-20 23:14:00,52.1,47.4,29.91,East,92,0.0,0.0,84,0.00,,CLR,0.00,VWS V14.01,2013-05-21 06:14:00,
2013-05-20 23:19:00,52.1,47.4,29.90,East,92,0.0,0.0,84,0.00,,CLR,0.00,VWS V14.01,2013-05-21 06:19:00,
2013-05-20 23:24:00,51.8,47.1,29.90,East,92,0.0,0.0,84,0.00,,CLR,0.00,VWS V14.01,2013-05-21 06:24:00,
2013-05-20 23:29:00,51.4,47.4,29.90,East,92,0.0,0.0,86,0.00,,CLR,0.00,VWS V14.01,2013-05-21 06:29:00,
2013-05-20 23:34:00,51.1,47.1,29.90,East,92,0.0,0.0,86,0.00,,CLR,0.00,VWS V14.01,2013-05-21 06:34:00,
2013-05-20 23:39:00,50.9,46.9,29.90,East,92,0.0,0.0,86,0.00,,CLR,0.00,VWS V14.01,2013-05-21 06:39:00,
2013-05-20 23:44:00,50.9,47.2,29.90,East,92,0.0,0.0,87,0.00,,CLR,0.00,VWS V14.01,2013-05-21 06:44:00,
2013-05-20 23:49:00,50.6,46.9,29.90,East,92,0.0,0.0,87,0.00,,CLR,0.00,VWS V14.01,2013-05-21 06:49:00,
2013-05-20 23:54:00,50.6,46.9,29.90,East,92,0.0,0.0,87,0.00,,CLR,0.00,VWS V14.01,2013-05-21 06:54:00,
2013-05-20 23:59:00,50.5,46.8,29.90,East,92,0.0,0.0,87,0.00,,CLR,0.00,VWS V14.01,2013-05-21 06:59:00,